| time (UTC) | temp F | wind direction | speed MPH | gust MPH | rain 1hr in | rain 24hr in | rain mn in | humidity % | barometer mb |
| 20260502230055 | 75 | 217 | 3.0 | 10.0 | 0.00 | 0.47 | 0.00 | 44 | 1019.2 |
| 20260502224547 | 76 | 144 | 3.0 | 12.0 | 0.00 | 0.55 | 0.00 | 44 | 1019.1 |
| 20260502223050 | 75 | 153 | 2.0 | 10.0 | 0.00 | 0.55 | 0.00 | 46 | 1019.2 |
| 20260502221553 | 75 | 148 | 3.0 | 9.0 | 0.00 | 0.55 | 0.00 | 46 | 1019.3 |
| 20260502220050 | 76 | 231 | 3.0 | 12.0 | 0.00 | 0.55 | 0.00 | 44 | 1019.3 |
| 20260502214600 | 75 | 180 | 5.0 | 13.0 | 0.00 | 0.95 | 0.00 | 45 | 1019.3 |
| 20260502213045 | 75 | 169 | 3.0 | 11.0 | 0.00 | 0.95 | 0.00 | 46 | 1019.5 |
| 20260502211603 | 75 | 138 | 5.0 | 13.0 | 0.00 | 0.95 | 0.00 | 48 | 1019.5 |
| 20260502210052 | 75 | 195 | 3.0 | 10.0 | 0.00 | 0.95 | 0.00 | 46 | 1019.6 |
| 20260502204551 | 75 | 146 | 2.0 | 12.0 | 0.00 | 1.27 | 0.00 | 45 | 1019.6 |
| 20260502203101 | 75 | 240 | 4.0 | 10.0 | 0.00 | 1.27 | 0.00 | 44 | 1019.7 |
| 20260502201550 | 75 | 216 | 2.0 | 11.0 | 0.00 | 1.27 | 0.00 | 45 | 1019.9 |
| 20260502200047 | 74 | 136 | 1.0 | 5.0 | 0.00 | 1.27 | 0.00 | 45 | 1020.2 |
| 20260502194552 | 74 | 111 | 1.0 | 8.0 | 0.00 | 1.38 | 0.00 | 47 | 1020.5 |
| 20260502193053 | 73 | 162 | 6.0 | 14.0 | 0.00 | 1.38 | 0.00 | 47 | 1020.8 |
| 20260502191550 | 74 | 205 | 3.0 | 8.0 | 0.00 | 1.38 | 0.00 | 47 | 1020.8 |
| 20260502190047 | 73 | 132 | 1.0 | 9.0 | 0.00 | 1.38 | 0.00 | 47 | 1020.9 |
| 20260502184547 | 72 | 130 | 2.0 | 9.0 | 0.00 | 2.05 | 0.00 | 48 | 1021.2 |
| 20260502183053 | 72 | 169 | 4.0 | 9.0 | 0.00 | 2.05 | 0.00 | 52 | 1021.2 |
| 20260502181547 | 71 | 162 | 2.0 | 12.0 | 0.00 | 2.05 | 0.00 | 50 | 1021.4 |
| 20260502163047 | 68 | 151 | 3.0 | 10.0 | 0.00 | 2.79 | 0.00 | 58 | 1021.6 |
| 20260502161553 | 67 | 139 | 2.0 | 10.0 | 0.00 | 2.79 | 0.00 | 62 | 1021.7 |
| 20260502151557 | 63 | 129 | 1.0 | 9.0 | 0.00 | 2.93 | 0.00 | 72 | 1021.5 |
| 20260502123046 | 53 | 161 | 1.0 | 5.0 | 0.00 | 3.18 | 0.00 | 92 | 1020.0 |
| 20260502121549 | 53 | 176 | 3.0 | 7.0 | 0.00 | 3.18 | 0.00 | 92 | 1019.7 |
| 20260502120106 | 53 | 153 | 1.0 | 6.0 | 0.00 | 3.18 | 0.00 | 91 | 1019.5 |
| 20260502114630 | 53 | 165 | 2.0 | 4.0 | 0.00 | 3.19 | 0.00 | 91 | 1019.1 |
| 20260502113053 | 53 | 151 | 1.0 | 5.0 | 0.00 | 3.19 | 0.00 | 90 | 1019.1 |
| 20260502111553 | 53 | 167 | 2.0 | 6.0 | 0.00 | 3.19 | 0.00 | 90 | 1019.2 |
| 20260502110046 | 53 | 158 | 1.0 | 4.0 | 0.00 | 3.19 | 0.00 | 90 | 1019.0 |
| 20260502104554 | 53 | 160 | 1.0 | 4.0 | 0.00 | 3.20 | 0.00 | 90 | 1018.8 |
| 20260502103050 | 53 | 155 | 2.0 | 4.0 | 0.00 | 3.20 | 0.00 | 90 | 1018.5 |
| 20260502101613 | 54 | 154 | 1.0 | 3.0 | 0.00 | 3.20 | 0.00 | 90 | 1018.4 |
| 20260502100109 | 54 | 153 | 0.0 | 3.0 | 0.00 | 3.20 | 0.00 | 89 | 1018.1 |
| 20260502070053 | 55 | 129 | 1.0 | 4.0 | 0.00 | 3.95 | 0.00 | 90 | 1017.2 |
| 20260502064612 | 56 | 143 | 1.0 | 10.0 | 0.00 | 4.03 | 0.00 | 90 | 1017.1 |
| 20260502063054 | 56 | 145 | 1.0 | 7.0 | 0.00 | 4.03 | 0.00 | 91 | 1017.2 |
| 20260502061546 | 56 | 148 | 2.0 | 9.0 | 0.00 | 4.03 | 0.00 | 91 | 1016.9 |
| 20260502060050 | 56 | 216 | 0.0 | 6.0 | 0.00 | 4.03 | 0.00 | 92 | 1016.7 |
| 20260502054545 | 56 | 146 | 0.0 | 6.0 | 0.00 | 4.10 | 0.00 | 92 | 1016.7 |
| 20260502053057 | 56 | 160 | 2.0 | 8.0 | 0.00 | 4.10 | 0.00 | 92 | 1016.9 |
| 20260502051550 | 56 | 127 | 1.0 | 7.0 | 0.00 | 4.10 | 0.00 | 93 | 1016.6 |
| 20260502050048 | 56 | 125 | 1.0 | 7.0 | 0.00 | 4.10 | 0.00 | 93 | 1016.5 |
| 20260502044545 | 56 | 136 | 0.0 | 5.0 | 0.00 | 4.27 | 4.10 | 93 | 1016.2 |
| 20260502043113 | 56 | 155 | 0.0 | 10.0 | 0.00 | 4.27 | 4.10 | 93 | 1016.3 |
| 20260502041601 | 56 | 205 | 2.0 | 10.0 | 0.00 | 4.27 | 4.10 | 93 | 1016.6 |
| 20260502040122 | 56 | 135 | 2.0 | 10.0 | 0.00 | 4.27 | 4.10 | 94 | 1016.3 |
| 20260502034546 | 56 | 183 | 3.0 | 11.0 | 0.01 | 4.27 | 4.10 | 94 | 1016.5 |
| 20260502033045 | 56 | 210 | 2.0 | 9.0 | 0.01 | 4.27 | 4.10 | 95 | 1016.3 |
| 20260502031551 | 56 | 153 | 3.0 | 9.0 | 0.01 | 4.27 | 4.10 | 95 | 1015.9 |
| 20260502030057 | 56 | 152 | 2.0 | 9.0 | 0.01 | 4.27 | 4.10 | 95 | 1015.6 |
| 20260502024549 | 56 | 131 | 3.0 | 12.0 | 0.02 | 4.26 | 4.09 | 95 | 1015.1 |
| 20260502023052 | 57 | 169 | 2.0 | 10.0 | 0.03 | 4.26 | 4.09 | 95 | 1014.9 |
| 20260502021545 | 58 | 181 | 2.0 | 6.0 | 0.05 | 4.26 | 4.09 | 95 | 1014.5 |
| 20260502020048 | 58 | 193 | 2.0 | 6.0 | 0.06 | 4.26 | 4.09 | 95 | 1014.4 |
| 20260502014545 | 58 | 155 | 1.0 | 6.0 | 0.10 | 4.23 | 4.07 | 96 | 1014.3 |
| 20260502013057 | 58 | 173 | 2.0 | 9.0 | 0.11 | 4.23 | 4.06 | 96 | 1014.3 |
| 20260502011556 | 58 | 182 | 4.0 | 9.0 | 0.10 | 4.21 | 4.04 | 96 | 1014.0 |
| 20260502010045 | 58 | 198 | 3.0 | 11.0 | 0.11 | 4.19 | 4.03 | 96 | 1013.5 |
| 20260502004549 | 59 | 281 | 6.0 | 9.0 | 0.14 | 4.14 | 3.97 | 96 | 1013.9 |
| 20260502003052 | 59 | 273 | 3.0 | 8.0 | 0.29 | 4.12 | 3.95 | 96 | 1013.1 |
| 20260502001550 | 59 | 153 | 1.0 | 6.0 | 0.29 | 4.11 | 3.94 | 96 | 1012.8 |
| 20260502000054 | 59 | 146 | 3.0 | 9.0 | 0.29 | 4.09 | 3.92 | 96 | 1012.8 |
| 20260501234551 | 59 | 167 | 1.0 | 13.0 | 0.27 | 4.00 | 3.83 | 96 | 1012.7 |
| 20260501233047 | 59 | 145 | 2.0 | 9.0 | 0.11 | 3.83 | 3.66 | 96 | 1012.9 |